User: anonymous   Login
Location: SAPM � Hemmingford
(45.0500°N, 73.5833°W)
Time: 18:34:02
(UTC-04:00)
Language:

Cosmos 1674 Rocket - Orbit

View from above orbital plane
View from above orbital plane
View from above satellite
View from above satellite

Ground track
Ground track

The orbit data is extracted from the following two-line orbital elements,

1 15945U 85069B   15116.50673669  .00000472  00000-0  54159-4 0  9999
2 15945 082.5261 145.9095 0019462 349.4628 010.6176 14.83674522604969
Epoch (UTC): 26 April 2015 12:09:42
Eccentricity: 0.0019462
inclination: 82.5261°
perigee height: 604 km
apogee height: 631 km
right ascension of ascending node: 145.9095°
argument of perigee: 349.4628°
revolutions per day: 14.83674522
mean anomaly at epoch: 10.6176°
orbit number at epoch: 60496

The dashed part of the orbit path shows where the satellite is in the earth's shadow,  

DLR